Regional Weather Roundup
Issued by NWS

Home | Current Version | Previous Version | Graphics & Text | Print | Product List | Glossary Off
Versions: 1 2 3 4 5 6 7 8 9 10 11 12 13 14 15 16 17 18 19 20 21 22 23 24 25 26 27 28 29 30 31 32 33 34 35 36 37 38 39 40 41 42 43 44 45 46 47 48 49 50

112
ASUS43 KMKX 010400
RWRWI

WISCONSIN REGIONAL WEATHER ROUNDUP
NATIONAL WEATHER SERVICE MILWAUKEE/SULLIVAN WI
1100 PM CDT SAT APR 30 2016

NOTE: "FAIR" INDICATES FEW OR NO CLOUDS BELOW 12,000 FEET WITH NO
SIGNIFICANT WEATHER AND/OR OBSTRUCTIONS TO VISIBILITY.

WIZ001-002-006>008-014>016-023>028-010500-
NORTHWEST WISCONSIN

CITY           SKY/WX    TMP DP  RH WIND       PRES   REMARKS
SUPERIOR ARPT  CLOUDY    39  31  71 NE7       30.24S WCI  34
ASHLAND        PTCLDY    38  33  82 NE9       30.22F WCI  31
HAYWARD        CLOUDY    39  31  72 NE8       30.17S WCI  33
SIREN          PTCLDY    42  29  60 NE8       30.17R
CUMBERLAND     CLOUDY    41  30  65 NE12G18   30.12S
RICE LAKE      CLOUDY    45  32  61 N17       30.13R
CHETEK         CLOUDY    47  34  61 NE9G17    30.11R
LADYSMITH      CLOUDY    46  33  58 NE14G20   30.13S
EAU CLAIRE     NOT AVBL
MENOMONIE      CLOUDY    49  35  57 NE5       30.09S
NEW RICHMOND   CLOUDY    46  31  56 NE18      30.11S
OSCEOLA        CLOUDY    45  31  57 NE12      30.15R
$$

WIZ003>005-009-010-017-018-010500-
NORTH CENTRAL WISCONSIN

CITY           SKY/WX    TMP DP  RH WIND       PRES   REMARKS
MANITOWISH WTR CLOUDY    39  32  75 NE10G18   30.16S WCI  32
ARBOR VITAE    CLOUDY    42  32  69 NE8       30.15S
WOODRUFF       CLOUDY    42  32  69 NE8       30.15S
RHINELANDER    MOCLDY    42  31  64 NE8       30.13S
EAGLE RIVER    CLOUDY    39  30  71 NE12      30.14S WCI  31
LAND O LAKES   CLOUDY    38  32  77 NE6       30.17S WCI  34
PHILLIPS       PTCLDY    42  31  66 NE14      30.13S
TOMAHAWK       CLOUDY    44  32  63 NE7G17    30.12S
MEDFORD        CLOUDY    48  32  53 NE9       30.08R
MERRILL        CLOUDY    49  32  53 NE12      30.10S
$$

WIZ029-030-035-036-043>047-010500-
CENTRAL WISCONSIN

CITY           SKY/WX    TMP DP  RH WIND       PRES   REMARKS
WAUSAU         CLOUDY    51  31  46 NE10      30.06S
MOSINEE        CLOUDY    46  32  57 NE9       30.08
MARSHFIELD     CLOUDY    48  33  56 E6        30.06R
STEVENS POINT  DRIZZLE   46  32  59 NE18      30.07S
WAUPACA        CLOUDY    50  33  51 N8        30.06S
WAUTOMA        CLOUDY    44  40  85 CALM      30.05S
WISC RAPIDS    CLOUDY    49  32  52 E8        30.07S
CAMP DOUGLAS   MIX PCPN  43  43 100 NE7       30.05S
$$

WIZ011>013-019>022-031-037>040-048>050-010500-
NORTHEAST WISCONSIN

CITY           SKY/WX    TMP DP  RH WIND       PRES   REMARKS
ANTIGO         CLOUDY    45  31  58 NE16      30.10R
SHAWANO        CLOUDY    50  34  53 NE13G20   30.08R
OCONTO         CLOUDY    47  31  53 NE12G20   30.07F
STURGEON BAY   CLOUDY    45  34  65 NE13      30.09F
GREEN BAY      CLOUDY    47  35  63 NE25G35   30.06S
MANITOWOC      NOT AVBL
APPLETON       CLOUDY    48  30  49 NE14G24   30.03R
CLINTONVILLE   CLOUDY    50  30  46 NE9G20    30.08R
OSHKOSH        CLOUDY    48  35  60 NE12      30.03S
$$

WIZ032>034-041-042-053>061-010500-
SOUTHWEST WISCONSIN

CITY           SKY/WX    TMP DP  RH WIND       PRES   REMARKS
LA CROSSE      LGT RAIN  44  41  89 W3        30.06R
SPARTA         DRIZZLE   44  39  84 E7        30.06S
VIROQUA        CLOUDY    42  40  94 E14G22    30.03S
BOSCOBEL       CLOUDY    45  45 100 NE6       30.02S
PRAIRIE DU CHI DRIZZLE   44  41  89 NE8       30.01S
PLATTEVILLE    CLOUDY    43  42  95 NE14G22   29.96F
$$

WIZ056-057-062-063-064-067-068-010500-
SOUTH CENTRAL WISCONSIN

CITY           SKY/WX    TMP DP  RH WIND       PRES   REMARKS
REEDSBURG      CLOUDY    43  41  93 NE6       30.04S
BARABOO/DELLS  DRIZZLE   43  40  90 NE7       30.03S
LONE ROCK      NOT AVBL
MINERAL POINT  LGT RAIN  43  43 100 NE17G24   29.97F
MADISON        DRIZZLE   43  40  89 NE10      30.00F
MIDDLETON      CLOUDY    44  41  88 NE9       30.01S
WATERTOWN      CLOUDY    42  42 100 NE8       30.00R
MONROE         CLOUDY    43  41  93 NE15G22   29.95S
JANESVILLE     CLOUDY    45  43  93 NE13      29.95
$$

WIZ051-052-058>065-066-070>072-010500-
SOUTHEAST WISCONSIN

CITY           SKY/WX    TMP DP  RH WIND       PRES   REMARKS
MILWAUKEE      CLOUDY    44  42  93 NE15      29.98F
WAUKESHA       CLOUDY    41  41 100 E14G21    30.00S
MILWAUKEE/TIMM CLOUDY    43  39  87 NE13G22   30.00F
RACINE         CLOUDY    44  41  89 NE17      29.98F
BURLINGTON     CLOUDY    44  43  97 NE12G18   29.95F
KENOSHA        CLOUDY    45  43  93 NE20G26   29.95F
FOND DU LAC    CLOUDY    45  38  76 E8        30.04R
SHEBOYGAN      LGT RAIN  41  38  89 NE9       30.03S
WEST BEND      CLOUDY    41  39  93 NE9       30.01F
JUNEAU         CLOUDY    42  39  90 N8        30.03R
$$

LSZ147-162-010500-
LAKE SUPERIOR

STATION/POSITION TIME  TEMP    WIND        PRES    WAVE
                       AIR SEA DIR/SP/G            HT/PER
                 (UTC) (F)     (DEG/KT/KT) (MB)    (FT/S)
W MID LAKE BUOY  0250   38 37   40/  6/  6 1025.3R   1/ 4
DEVILS ISLAND    0300   40      80/ 13/ 14 1025.0R
PORT WING        0300   39      40/ 11/ 13 1024.0F
SAXON HARBOR     0340   40      60/  9/ 13 1022.7S
$$

LMZ867-665-643>646-010500-
LAKE MICHIGAN

STATION/POSITION TIME  TEMP    WIND        PRES    WAVE
                       AIR SEA DIR/SP/G            HT/PER
                 (UTC) (F)     (DEG/KT/KT) (MB)    (FT/S)
CHAMBERS ISLAND  0300   43     360/ 18/ 22 1019.6S
N MID LAKE BUOY  0250   42 38   20/ 14/ 17 1019.9S   2/ 3
NORTHPORT PIER   0300   44      10/ 16/ 25 1019.6F
ALGOMA LAKESHORE 0315           40/ 17/ 23   N/A
KEWAUNEE LAKESHO 0300   47      30/ 17/ 23 1017.1F
SHEBOYGAN LAKESH 0300   41      70/ 15/ 17 1017.1F
PORT WASHINGTON  0320   45      40/ 11/ 22 1017.3F
S MID LAKE BUOY  0250   43 40   40/ 14/ 17 1015.1R   2/ 3
KENOSHA   LAKESH 0300   43      50/ 22/ 26 1014.6F
$$

TC  - TEMPERATURE IN CELSIUS
VSB - VISIBILITY IN STATUTE MILES
WCI - WIND CHILL INDEX
HX  - HEAT INDEX





USA.gov is the U.S. government's official web portal to all federal, state and local government web resources and services.